Location: Albany
(35.0170°S, 117.8920°E)
Time: 21:12:36
(UTC+08:00)

A-11 Canister half - Pass Details

Date: 26 January 2021
Orbit: 1525 x 1684 km, 47.3° (Epoch: 03 March)

Event Time Altitude Azimuth Distance (km) Brightness Sun altitude
Rises 11:25:06 0° 254° (WSW) 4,784 11.4 69.5°
Reaches altitude 10° 11:30:57 10° 281° (W) 3,753 11.1 70.3°
Maximum altitude 11:34:07 12° 301° (WNW) 3,565 11.1 70.6°
Drops below altitude 10° 11:37:17 10° 321° (NW) 3,710 11.2 71.0°
Sets 11:43:03 0° 349° (N) 4,663 11.7 71.6°
